User: anonymous   Login
Location: Hartman Creek State Park
(44.3257°N, 89.2134°W)
Time: 23:23:44
(UTC-05:00)
Language:

Cosmos 2263 Rocket - Orbit

View from above orbital plane
View from above orbital plane
View from above satellite
View from above satellite

Ground track
Ground track

The orbit data is extracted from the following two-line orbital elements,

1 22803U 93059B   15187.80560387  .00000241  00000-0  14421-3 0  9992
2 22803 070.9912 308.4213 0016314 022.4103 337.7730 14.16716220127520
Epoch (UTC): 06 July 2015 19:20:04
Eccentricity: 0.0016314
inclination: 70.9912°
perigee height: 825 km
apogee height: 848 km
right ascension of ascending node: 308.4213°
argument of perigee: 22.4103°
revolutions per day: 14.16716220
mean anomaly at epoch: 337.7730°
orbit number at epoch: 12752

The dashed part of the orbit path shows where the satellite is in the earth's shadow,  

DLR